DECAYED

NOAA 16 DEB, 41294 (Decayed)

Orbit data source: Space-Track

NOAA 16 DEB, 41294 was space debris in SSO originally from a launch on Thu, 21 Sep 2000 UTC launched from the Air Force Western Test Range (AFWTR). Debris objects in space refer to the collection of defunct objects orbiting the Earth. Examples of debris include non-operational satellites, rocket bodies, and fragments generated from explosions, collisions, or faulty payload assembly.

Not visible in the next 10 days
Identifier
41294, 2000-055GW
Orbit
Decayed
Country
Flag of USUS
Related business
Manufacturer
Unknown
Mission
Decayed spacecraft
Bus & Motor
Unknown
Mass
Unknown
Launch date (UTC)
2000-09-21 (25 years ago)
Launch vehicle
Unknown
Launch site
Air Force Western Test Range (AFWTR)
Object type
Payload
Rocket body
Debris
Shape & HBR
Unknown shape, 0.1 m
Radar Cross Section
Small (<0.1 m²)

Expand to show TLE details & history
Last TLE update: 5 months ago

TLE from 5 months ago
0 NOAA 16 DEB
1 41294U 00055GW  25149.68762379  .00422594  00000-0  17122-1 0  9999
2 41294  98.7919 306.6938 0013138 231.3750 128.6307 15.22667387491713
Epoch: 2025-05-29T16:30Z
TLE epoch observation values (Epoch: 2025-05-29T16:30:10.695Z)
Latitude
-0.00001°
Longitude
171.6961°
Altitude
506.498 km
Speed
7.608 km/s
True Right ascension
20h 26m 46s
True Declination
0° 00' 00"
Sunlit
Object was in full shadow at epoch
Visualization orbit readout
Latitude
Unknown
Longitude
Unknown
Altitude
Unknown
Speed
Unknown
Apparent Right ascension
Unknown
Apparent Declination
Unknown
Sunlit
N/A
Visualization observer readout
Local Sidereal Time
13:13:04
Azimuth
Unknown
Elevation
Unknown
Doppler factor
Unknown
Orbital elements
Apogee altitude
503.856 km
Perigee altitude
485.796 km
Semi-major axis
6,872.963 km
Eccentricity
0.00131
Inclination
98.7919°
RAAN
306.6938°
Arg. of periapsis
231.375°
True anomaly
128.74819°
Mean anomaly
128.6307°
Eccentric anomaly
128.68946°
Mean motion
3.80914 °/min
Orbital period
94.51 mins
BSTAR
0.017122
Loading maneuver chart data...
Computing Atmospheric mass density...

Documentation

Showing up to 5 results
|